Location: Unspecified
(0.0000°N, 0.0000°E)
Time: 06:00:26
(UTC+00:00)

LightSail 2 - Pass Details

Date: 11 October 2019
Orbit: 707 x 723 km, 24.0° (Epoch: 13 October)

Event Time Altitude Azimuth Distance (km) Brightness Sun altitude
Exits shadow 04:58:16 13° 248° (WSW) 1,992 6.9 -12.1°
Maximum altitude 05:01:34 22° 203° (SSW) 1,505 6.7 -11.2°
Drops below altitude 10° 05:05:32 10° 152° (SSE) 2,169 8.2 -10.3°
Sets 05:08:26 0° 137° (SE) 3,087 9.3 -9.5°
